カタログに戻る

SL-8 DEB

運用中PO
NORAD 29288·DEBRIS·🇷🇺 Russia

打ち上げ Dec 17, 1981 から Plesetsk Cosmodrome

Loading…

次のパス (今後24時間)

TLE

経年Source: Space-Track

元期: Sep 10, 2026, 14:17 UTC

1 29288U 81120S   26253.59518654 -.00000061  00000-0 -79644-3 0  9994
2 29288  82.9674  22.8631 0008776 313.7119  46.3214 12.06822556522738

AllMySatでSL-8 DEBをリアルタイム追跡

Download on the App Store